Location: Gro�sch�nbrunn
(49.5760°N, 11.8868°E)
Time: 09:48:36
(UTC+00:00)

N. Korean satellite - Pass Details

Date: 01 December 2020
Orbit: 453 x 502 km, 97.2° (Epoch: 16 January)

Event Time Altitude Azimuth Distance (km) Brightness Sun altitude
Rises 16:19:55 0° 188° (S) 2,459 10.6 -10.1°
Reaches altitude 10° 16:22:04 10° 198° (SSW) 1,596 9.8 -10.4°
Maximum altitude 16:25:10 32° 263° (W) 817 8.5 -10.9°
Drops below altitude 10° 16:28:21 10° 329° (NNW) 1,627 9.4 -11.4°
Sets 16:30:34 0° 339° (NNW) 2,517 10.2 -11.7°
